This is the latest recevied weather packets stored in our database for station/object W1LBM. If no packets are shown the sender has not sent any weather packets the latest 10 day(s).
| Time | Temp. | Humidity | Pressure | Rain* | Wind** | Luminosity | Snow |
|---|---|---|---|---|---|---|---|
| 1777749910 | 11.67° C | 82% | 1013.6 hPa | 0 mm | - | 185 W/m² | - |
| 1777749608 | 11.67° C | 83% | 1013.8 hPa | 0 mm | - | 215 W/m² | - |
| 1777749305 | 11.11° C | 83% | 1013.8 hPa | 0 mm | - | 270 W/m² | - |
| 1777749002 | 11.11° C | 84% | 1014 hPa | 0 mm | - | 201 W/m² | - |
| 1777748699 | 11.11° C | 81% | 1013.9 hPa | 0 mm | - | 205 W/m² | - |
| 1777748396 | 11.11° C | 80% | 1014.2 hPa | 0 mm | - | 313 W/m² | - |
| 1777748091 | 11.67° C | 83% | 1014 hPa | 0 mm | - | 264 W/m² | - |
| 1777747788 | 11.11° C | 84% | 1013.9 hPa | 0 mm | - | 321 W/m² | - |
| 1777747484 | 10.56° C | 86% | 1014.1 hPa | 0 mm | - | 290 W/m² | - |
| 1777747180 | 10.56° C | 86% | 1014.1 hPa | 0 mm | - | 213 W/m² | - |
| 1777746877 | 10° C | 90% | 1014.2 hPa | 0 mm | - | 196 W/m² | - |
| 1777746572 | 10° C | 92% | 1014.3 hPa | 0 mm | - | 182 W/m² | - |
| 1777746268 | 9.44° C | 91% | 1014.4 hPa | 0 mm | - | 184 W/m² | - |
| 1777745964 | 9.44° C | 91% | 1014.3 hPa | 0 mm | - | 108 W/m² | - |
| 1777745663 | 9.44° C | 90% | 1014.4 hPa | 0 mm | - | 101 W/m² | - |
| 1777745361 | 9.44° C | 91% | 1014.3 hPa | 0 mm | - | 100 W/m² | - |
| 1777745058 | 9.44° C | 90% | 1014.5 hPa | 1.78 mm | - | 69 W/m² | - |
| 1777744754 | 9.44° C | 90% | 1014.6 hPa | 1.78 mm | - | 76 W/m² | - |
| 1777744448 | 9.44° C | 90% | 1014.4 hPa | 1.78 mm | - | 68 W/m² | - |
| 1777744145 | 10° C | 90% | 1014.4 hPa | 1.78 mm | - | 61 W/m² | - |
| 1777743842 | 10° C | 91% | 1014.3 hPa | 1.78 mm | - | 65 W/m² | - |
| 1777743538 | 10° C | 90% | 1014.3 hPa | 1.78 mm | - | 90 W/m² | - |
| 1777743235 | 10° C | 89% | 1014.4 hPa | 0 mm | - | 84 W/m² | - |
| 1777742934 | 10° C | 89% | 1014.6 hPa | 0 mm | - | 84 W/m² | - |
| 1777742630 | 10° C | 90% | 1014.4 hPa | 1.27 mm | - | 124 W/m² | - |
* Rain latest hour (hover to see other rain measurements)
** Current wind speed in m/s (hover to see current wind gust speed)